Wind_Speed
91 89 76 81 81 81 78 77 72 61 59 57 54 53 51 41 40 43 36 35 37 40 38 33 34 30 28 23 26 28 31 36 40 41 42 42 42 42 39 43 48 49 52 53
91 81 86 86 78 78 82 78 71 68 60 56 59 55 49 46 48 47 44 41 40 39 40 41 42 44 42 45 42 42 38 37 41 41 45 46 44 44 48 50 52 54 60 61
96 93 81 89 91 77 80 74 71 73 74 65 64 61 61 50 49 48 47 46 47 48 46 49 46 45 47 52 48 45 45 46 45 47 49 50 48 53 52 62 61 61 61 65
100 97 90 90 90 86 77 80 76 67 74 65 61 57 60 55 51 47 49 46 46 53 57 53 47 49 49 50 49 44 44 47 51 55 54 55 54 54 61 67 70 65 69 69
94 90 93 93 91 94 88 88 85 76 75 68 69 63 56 58 59 58 56 53 51 49 47 47 51 47 48 48 51 55 56 58 58 59 62 61 58 69 69 73 72 74 73 73
107 98 95 88 83 87 86 87 91 89 79 77 70 66 56 59 59 59 53 53 52 53 50 52 53 51 50 55 56 56 62 67 63 63 64 66 72 72 74 75 76 80 78 78
110 111 99 98 97 92 83 80 82 82 79 71 72 77 66 66 62 63 64 62 62 59 59 58 59 64 63 64 65 67 70 71 70 67 71 75 78 78 80 77 78 82 84 85
103 99 100 99 101 96 91 92 91 86 86 85 78 77 71 73 76 69 67 71 68 68 68 68 69 67 70 70 71 74 74 78 75 79 84 85 83 85 84 82 82 85 91 89
100 98 96 98 100 104 97 95 92 93 91 87 85 78 78 77 77 78 72 74 78 79 77 80 83 82 80 81 82 78 80 80 82 88 89 90 89 90 88 86 86 88 91 91
108 107 105 102 101 100 96 101 100 101 95 93 91 91 79 81 84 83 83 84 80 77 77 79 80 81 83 83 86 85 85 90 92 93 91 93 90 93 91 88 92 93 94 94
109 108 105 105 100 103 102 100 100 100 99 94 94 92 90 91 89 87 88 94 95 94 93 93 88 90 92 90 89 87 93 96 97 97 97 97 97 95 93 95 96 97 97 98
115 113 111 106 104 108 107 104 105 105 102 101 97 93 90 94 94 94 90 92 93 95 94 94 97 98 93 93 95 97 103 103 101 103 100 99 100 97 96 100 101 102 102 101
115 116 115 118 115 108 106 101 101 106 105 102 100 87 91 93 92 94 95 97 96 94 94 97 100 99 97 101 106 105 108 105 107 107 99 98 101 103 102 105 106 105 104 104
119 120 121 118 111 111 111 106 104 106 104 99 103 99 100 96 95 97 97 98 100 100 102 101 102 102 105 112 112 111 109 108 105 101 100 102 104 104 106 107 106 106 108 107
120 121 118 117 119 120 118 118 115 116 107 115 107 108 103 100 100 106 108 107 107 108 109 111 111 112 113 115 113 109 108 106 103 104 107 108 108 108 107 108 109 110 109 110
114 116 112 114 118 120 118 118 118 118 115 119 114 114 112 110 114 111 111 114 115 114 117 118 115 113 113 111 109 111 112 109 107 109 109 110 109 109 110 110 112 113 114 113
112 111 110 112 110 115 120 112 113 116 115 113 112 105 112 112 115 118 119 118 115 114 112 113 117 115 113 112 113 112 110 111 111 114 111 112 112 115 114 116 116 115 115 117
115 113 112 117 115 122 107 108 109 110 112 114 111 111 115 114 116 119 117 117 117 117 118 116 112 111 113 114 113 113 113 114 112 112 112 117 115 118 118 118 118 120 121 122
118 117 116 119 116 116 110 106 107 108 107 110 108 110 110 111 113 112 112 115 116 115 114 113 111 111 113 113 115 115 115 115 117 116 116 117 118 120 120 122 122 124 125 124
115 117 119 117 118 115 97 106 108 110 113 104 108 111 111 113 115 109 110 115 115 113 111 112 112 114 114 115 117 118 117 116 117 119 122 123 124 124 124 124 123 125 125 128
112 113 115 117 119 112 105 110 111 114 104 107 111 114 114 114 113 111 110 112 112 112 112 114 115 115 115 115 116 118 119 120 122 122 123 122 123 125 126 123 124 129 131 135
104 106 108 111 114 110 107 110 112 108 108 109 110 110 111 113 112 112 112 112 114 114 115 117 117 117 119 118 118 118 119 120 123 124 125 124 123 126 128 131 134 137 139 141
110 105 103 102 99 102 105 108 111 111 111 111 111 111 111 111 112 111 111 112 113 114 115 116 116 118 120 120 120 120 120 121 122 124 126 128 131 135 138 138 140 143 142 144
122 121 118 112 107 104 103 103 103 106 110 112 111 111 113 114 114 112 111 111 110 111 112 115 118 118 117 118 119 122 125 127 130 133 137 139 141 140 141 141 139 137 138 136
121 123 122 120 117 113 113 112 113 112 112 112 110 111 111 111 111 112 113 113 115 118 121 123 124 125 127 128 130 132 134 135 137 139 141 140 139 136 133 134 135 136 138 140
112 112 115 114 120 124 120 121 122 120 120 120 120 121 121 120 119 121 123 124 125 127 129 131 132 133 133 134 134 135 136 136 135 135 130 130 130 132 133 133 136 139 142 146
Wind_Direction
215 219 217 223 224 225 229 229 230 233 237 236 246 243 246 250 250 243 246 241 251 253 256 264 268 274 279 281 284 290 296 301 306 312 316 320 320 321 321 322 323 325 327 321
215 216 221 223 220 226 228 231 232 236 238 248 243 244 242 244 246 246 246 247 254 263 262 268 275 277 278 285 281 285 291 296 301 306 311 313 309 313 321 324 322 315 318 320
220 220 219 219 220 227 228 231 233 233 243 249 246 244 240 247 245 248 251 255 257 263 268 271 274 277 282 283 282 282 283 288 296 302 311 310 306 306 309 318 318 316 316 315
218 222 218 221 224 225 226 228 233 236 240 240 242 245 245 248 246 255 258 261 266 263 262 266 267 276 279 276 279 283 284 288 293 299 304 310 306 304 312 313 315 315 316 314
213 219 224 224 227 227 230 231 232 237 238 238 242 244 245 246 249 258 257 264 262 260 261 263 273 274 273 274 279 285 287 288 291 298 304 301 311 310 306 311 312 313 317 311
221 221 222 223 224 227 229 232 232 235 239 246 247 249 245 247 248 248 250 256 256 259 261 265 269 270 269 274 278 281 286 292 294 298 303 300 302 308 309 305 308 311 311 311
224 226 227 228 231 227 230 233 235 233 239 244 247 248 242 246 249 254 255 258 260 260 264 265 267 270 271 275 278 285 289 291 294 300 301 304 304 304 307 305 303 304 307 306
221 228 229 232 231 232 237 243 241 238 241 240 243 245 245 252 251 257 262 259 262 262 267 271 272 270 272 274 280 285 290 294 293 295 302 303 302 303 303 302 301 300 306 306
222 224 223 226 231 233 238 240 239 241 238 236 244 245 244 256 257 256 260 261 262 265 269 272 271 272 275 279 280 282 288 293 297 298 299 301 300 301 298 299 300 298 301 304
223 226 229 231 232 232 233 235 239 240 243 244 246 248 252 253 254 258 263 266 265 264 266 268 272 274 277 279 280 284 287 291 294 295 294 297 296 297 295 294 298 299 299 300
222 225 228 230 232 233 234 239 242 242 248 250 249 249 252 250 253 259 265 264 266 266 268 272 275 276 278 282 280 284 288 290 291 290 294 295 294 295 295 293 297 296 298 298
223 224 225 227 230 232 239 243 245 248 248 247 250 249 251 252 255 263 263 261 264 266 268 270 274 278 277 277 282 282 290 289 289 290 290 292 293 294 292 294 293 295 295 296
224 225 227 231 233 236 238 240 242 244 244 247 246 246 256 258 257 260 261 261 261 263 268 272 274 274 275 280 282 281 287 287 287 288 289 292 291 292 290 293 293 293 293 293
225 226 227 229 230 230 232 233 237 239 239 242 247 251 253 253 254 255 256 257 264 268 270 271 272 273 277 283 283 285 285 286 286 285 286 287 286 288 288 289 289 291 291 293
228 227 228 230 231 234 236 240 242 240 244 247 248 249 249 249 249 252 256 262 263 267 270 275 273 275 282 282 281 281 281 281 281 280 283 284 284 285 286 287 288 290 290 291
231 232 233 233 233 235 236 238 241 243 244 248 247 250 251 252 254 257 260 262 265 268 272 272 274 276 276 277 277 277 277 278 280 281 281 282 283 283 285 286 288 288 290 291
227 230 233 236 235 236 236 238 242 244 246 248 248 249 250 253 257 260 260 262 264 268 266 266 269 270 273 274 274 275 275 277 279 280 280 281 282 285 285 287 289 289 290 291
227 228 231 233 235 238 237 240 243 246 249 251 254 254 256 257 258 261 264 265 266 267 268 268 268 269 270 271 272 274 275 276 277 278 279 282 283 285 286 288 289 290 292 293
231 231 233 236 238 239 238 241 244 245 245 248 251 252 255 257 257 259 262 262 262 263 264 266 268 269 270 272 274 275 274 276 278 279 281 283 284 285 287 289 289 290 291 290
233 236 237 238 240 241 237 239 241 244 246 248 250 252 252 253 255 257 258 259 262 264 265 267 267 268 270 271 273 275 276 278 278 280 283 285 286 286 288 288 287 288 288 289
235 236 239 241 242 242 242 243 244 246 247 246 249 250 251 254 255 256 258 259 261 263 265 266 269 270 272 273 275 277 279 281 282 284 285 285 284 285 287 287 285 286 288 290
233 235 238 241 243 245 245 246 247 246 246 245 247 251 253 255 256 258 260 263 265 267 268 270 271 272 274 276 278 280 280 279 280 281 282 282 283 284 285 286 287 289 291 291
231 234 236 239 242 243 243 245 246 249 250 251 252 253 255 257 258 260 261 263 265 267 268 269 271 272 273 275 277 278 278 278 278 279 280 281 282 283 286 288 289 290 290 291
235 235 236 238 240 241 242 243 244 247 250 252 253 254 256 256 258 260 261 262 263 264 266 269 270 271 272 273 274 274 275 276 278 280 282 284 285 286 287 287 287 288 288 289
238 239 240 241 242 244 245 245 245 245 246 248 249 251 252 253 255 256 258 260 263 265 266 268 269 270 272 273 275 277 279 280 281 283 284 285 285 286 287 288 288 288 289 290
238 241 243 245 245 246 248 249 250 251 252 252 252 253 254 255 256 258 260 262 263 264 267 269 272 274 276 276 277 278 280 282 282 283 282 283 284 285 286 286 287 289 290 291
Height
10702 10712 10728 10737 10743 10746 10752 10756 10763 10772 10775 10781 10789 10796 10804 10807 10810 10812 10815 10817 10819 10819 10820 10823 10823 10821 10822 10822 10822 10822 10821 10821 10820 10819 10818 10817 10816 10815 10814 10812 10810 10806 10803 10800
10693 10708 10711 10718 10731 10737 10741 10747 10757 10764 10767 10774 10780 10785 10794 10797 10801 10803 10807 10810 10812 10812 10812 10813 10814 10815 10815 10816 10816 10816 10815 10814 10813 10812 10811 10809 10807 10806 10805 10803 10802 10799 10795 10792
10687 10691 10702 10709 10716 10725 10733 10741 10747 10755 10756 10763 10767 10776 10783 10789 10793 10795 10798 10800 10803 10805 10804 10804 10805 10806 10806 10805 10805 10807 10807 10807 10807 10805 10804 10803 10800 10797 10795 10793 10789 10788 10786 10782
10667 10680 10684 10694 10706 10713 10720 10729 10733 10740 10744 10754 10758 10766 10775 10778 10784 10787 10788 10790 10792 10795 10797 10796 10795 10796 10797 10795 10796 10797 10798 10799 10798 10797 10795 10794 10791 10788 10786 10782 10778 10774 10771 10768
10668 10669 10678 10686 10694 10699 10710 10717 10723 10728 10735 10742 10747 10758 10768 10770 10776 10777 10779 10780 10782 10783 10785 10786 10787 10787 10787 10786 10787 10788 10788 10787 10787 10787 10786 10783 10780 10778 10774 10771 10765 10762 10757 10753
10648 10651 10662 10674 10683 10690 10698 10704 10711 10717 10724 10732 10738 10749 10758 10762 10763 10765 10768 10770 10769 10771 10772 10774 10775 10776 10777 10777 10777 10777 10776 10775 10776 10775 10773 10770 10767 10764 10761 10757 10752 10747 10742 10738
10641 10646 10659 10666 10667 10678 10687 10695 10700 10706 10715 10730 10731 10730 10748 10750 10753 10755 10756 10757 10758 10759 10762 10763 10764 10764 10764 10764 10764 10764 10765 10764 10764 10761 10759 10756 10753 10749 10746 10742 10738 10732 10728 10723
10624 10638 10651 10658 10663 10675 10677 10676 10688 10694 10705 10715 10710 10720 10738 10737 10740 10744 10744 10746 10746 10747 10749 10750 10752 10752 10752 10752 10752 10751 10751 10750 10750 10747 10745 10741 10738 10734 10730 10726 10721 10716 10711 10706
10614 10621 10631 10637 10647 10651 10660 10666 10674 10678 10687 10694 10700 10711 10721 10728 10730 10729 10730 10731 10733 10735 10736 10735 10737 10738 10739 10739 10739 10738 10737 10736 10735 10732 10728 10725 10722 10717 10713 10709 10704 10701 10695 10690
10595 10604 10610 10618 10626 10634 10648 10645 10652 10662 10672 10683 10695 10703 10712 10713 10711 10713 10717 10718 10720 10719 10719 10719 10720 10723 10724 10724 10725 10724 10723 10721 10718 10715 10712 10709 10706 10702 10697 10693 10688 10683 10677 10671
10577 10588 10594 10602 10616 10624 10629 10636 10644 10648 10657 10672 10682 10693 10693 10696 10698 10701 10704 10703 10702 10703 10703 10702 10703 10706 10708 10709 10710 10708 10707 10704 10701 10698 10695 10691 10686 10682 10678 10673 10668 10663 10657 10651
10556 10564 10573 10585 10594 10602 10608 10618 10623 10635 10654 10654 10662 10673 10682 10683 10684 10686 10685 10685 10684 10682 10683 10687 10689 10691 10692 10692 10690 10690 10688 10685 10681 10678 10674 10670 10667 10662 10657 10652 10647 10641 10635 10629
10538 10545 10555 10561 10576 10589 10602 10610 10616 10618 10628 10639 10643 10671 10668 10666 10666 10667 10667 10663 10663 10667 10670 10672 10671 10670 10671 10671 10670 10670 10667 10663 10660 10657 10654 10650 10646 10641 10635 10629 10624 10618 10612 10607
10512 10526 10536 10551 10572 10566 10574 10582 10588 10592 10602 10628 10629 10644 10645 10651 10649 10646 10643 10646 10653 10655 10653 10652 10651 10652 10652 10651 10648 10646 10643 10640 10638 10636 10633 10629 10623 10618 10613 10606 10601 10595 10590 10584
10495 10512 10526 10539 10544 10549 10561 10569 10575 10578 10603 10591 10622 10614 10623 10629 10628 10625 10629 10632 10630 10630 10629 10630 10631 10632 10632 10629 10626 10624 10622 10619 10616 10613 10609 10605 10600 10594 10589 10584 10579 10572 10566 10560
10479 10496 10505 10514 10525 10528 10537 10542 10554 10563 10577 10576 10596 10596 10601 10611 10599 10607 10607 10605 10608 10611 10612 10610 10610 10610 10608 10605 10603 10600 10598 10597 10594 10591 10587 10581 10576 10572 10566 10560 10556 10551 10543 10537
10455 10470 10479 10491 10501 10504 10508 10545 10546 10547 10553 10563 10570 10592 10570 10580 10583 10581 10578 10583 10590 10591 10589 10588 10585 10583 10583 10583 10580 10578 10577 10575 10570 10566 10562 10558 10553 10548 10542 10537 10531 10525 10519 10511
10441 10453 10457 10467 10473 10471 10529 10521 10531 10535 10540 10544 10555 10562 10556 10559 10558 10552 10563 10566 10564 10562 10562 10561 10562 10562 10560 10556 10555 10554 10552 10548 10543 10539 10535 10533 10528 10523 10517 10511 10504 10497 10491 10485
10430 10438 10444 10447 10460 10478 10503 10516 10515 10512 10521 10519 10531 10532 10534 10535 10532 10540 10544 10538 10533 10534 10536 10537 10539 10537 10534 10532 10531 10529 10525 10522 10518 10512 10508 10505 10502 10495 10488 10481 10474 10468 10464 10456
10415 10424 10426 10440 10443 10458 10502 10489 10484 10487 10501 10513 10507 10503 10506 10503 10507 10524 10513 10509 10512 10514 10514 10513 10510 10508 10507 10505 10503 10501 10499 10495 10492 10487 10481 10476 10472 10466 10460 10453 10447 10440 10432 10426
10397 10406 10412 10419 10425 10450 10469 10467 10465 10466 10497 10482 10474 10473 10480 10482 10488 10492 10490 10488 10488 10488 10486 10485 10483 10483 10481 10478 10475 10473 10471 10467 10463 10458 10453 10447 10441 10437 10431 10426 10415 10410 10402 10395
10380 10386 10390 10396 10406 10429 10444 10444 10444 10446 10442 10451 10455 10457 10458 10461 10463 10465 10466 10464 10463 10462 10460 10459 10458 10456 10455 10452 10450 10448 10443 10438 10434 10429 10424 10419 10414 10406 10401 10396 10387 10378 10368 10361
10360 10366 10376 10379 10395 10401 10414 10418 10418 10420 10423 10429 10436 10438 10438 10437 10437 10439 10441 10442 10441 10438 10435 10434 10434 10432 10430 10428 10425 10421 10417 10411 10406 10400 10395 10391 10385 10375 10369 10363 10355 10346 10334 10326
10338 10347 10351 10362 10373 10379 10385 10390 10396 10396 10398 10404 10408 10411 10414 10417 10417 10416 10415 10415 10415 10411 10410 10409 10409 10408 10405 10402 10397 10393 10388 10383 10378 10372 10367 10361 10354 10346 10337 10329 10320 10312 10300 10293
10318 10325 10336 10342 10352 10353 10358 10363 10365 10368 10374 10378 10383 10385 10388 10391 10393 10392 10391 10389 10388 10387 10385 10383 10382 10381 10377 10373 10370 10365 10359 10353 10348 10342 10336 10329 10323 10315 10307 10298 10288 10278 10266 10256
10300 10310 10310 10322 10324 10325 10333 10335 10339 10345 10349 10354 10356 10358 10361 10363 10363 10365 10365 10364 10364 10363 10361 10358 10355 10352 10347 10342 10338 10334 10329 10323 10317 10311 10302 10297 10292 10285 10277 10271 10262 10245 10234 10222